GW5979 Weather Reports


time (UTC)temp
C
wind
direction
speed
KPH
gust
KPH
rain 1hr
cm
rain 24hr
cm
rain mn
cm
humidity
%
barometer
mb
20260906212334 30 163 9.7 20.9 0.00 0.00 0.00 36 1017.6
20260906211834 29 199 9.7 17.7 0.00 0.00 0.00 37 1017.7
20260906211329 30 177 6.4 9.7 0.00 0.00 0.00 37 1017.8
20260906210825 30 175 11.3 17.7 0.00 0.00 0.00 36 1017.7
20260906210324 29 182 6.4 14.5 0.00 0.00 0.00 37 1017.8
20260906205819 29 200 9.7 19.3 0.00 0.00 0.00 37 1017.8
20260906205316 29 207 6.4 16.1 0.00 0.00 0.00 37 1018.0
20260906204811 29 207 20.9 22.5 0.00 0.00 0.00 36 1018.0
20260906204310 30 177 8.0 16.1 0.00 0.00 0.00 37 1018.2
20260906203810 30 241 4.8 14.5 0.00 0.00 0.00 39 1018.0
20260906203305 29 176 14.5 17.7 0.00 0.00 0.00 39 1018.3
20260906202802 30 160 17.7 22.5 0.00 0.00 0.00 38 1018.0
20260906202301 29 183 14.5 25.7 0.00 0.00 0.00 39 1018.3
20260906201756 29 129 8.0 14.5 0.00 0.00 0.00 38 1018.2
20260906201256 30 185 16.1 19.3 0.00 0.00 0.00 38 1018.0
20260906200752 30 187 14.5 22.5 0.00 0.00 0.00 39 1018.3
20260906200247 29 174 14.5 22.5 0.00 0.00 0.00 39 1018.4
20260906195743 29 199 6.4 8.0 0.00 0.00 0.00 38 1018.5
20260906195239 30 191 14.5 17.7 0.00 0.00 0.00 38 1018.4
20260906194735 29 207 14.5 20.9 0.00 0.00 0.00 38 1018.2
20260906194231 30 182 1.6 17.7 0.00 0.00 0.00 38 1018.7
20260906193726 29 171 6.4 11.3 0.00 0.00 0.00 39 1018.5
20260906193225 28 154 3.2 9.7 0.00 0.00 0.00 39 1018.7
20260906192721 28 178 6.4 16.1 0.00 0.00 0.00 39 1018.5
20260906192216 28 233 6.4 16.1 0.00 0.00 0.00 39 1018.8
20260906191715 29 195 11.3 16.1 0.00 0.00 0.00 38 1018.9
20260906191210 28 198 14.5 16.1 0.00 0.00 0.00 38 1018.7
20260906190709 28 210 9.7 16.1 0.00 0.00 0.00 36 1018.9
20260906190204 29 68 8.0 14.5 0.00 0.00 0.00 36 1019.1
20260906185703 29 210 6.4 12.9 0.00 0.00 0.00 37 1019.1
20260906185202 28 200 4.8 6.4 0.00 0.00 0.00 36 1019.4
20260906184657 29 177 8.0 9.7 0.00 0.00 0.00 35 1019.3
20260906184153 28 169 9.7 17.7 0.00 0.00 0.00 36 1019.9
20260906183648 28 174 6.4 14.5 0.00 0.00 0.00 36 1019.4
20260906183144 28 192 6.4 16.1 0.00 0.00 0.00 36 1019.5
20260906182644 28 166 6.4 14.5 0.00 0.00 0.00 37 1019.6
20260906182140 28 153 11.3 16.1 0.00 0.00 0.00 36 1019.9
20260906181635 28 229 4.8 6.4 0.00 0.00 0.00 37 1019.9
20260906181131 28 82 6.4 9.7 0.00 0.00 0.00 37 1020.2
20260906180627 28 180 4.8 11.3 0.00 0.00 0.00 37 1020.1
20260906180126 27 26 3.2 6.4 0.00 0.00 0.00 38 1020.2
20260906175625 27 346 3.2 8.0 0.00 0.00 0.00 38 1020.1
20260906175120 27 183 8.0 11.3 0.00 0.00 0.00 38 1020.4
20260906174618 27 178 6.4 16.1 0.00 0.00 0.00 38 1020.2
20260906174113 27 63 3.2 8.0 0.00 0.00 0.00 39 1020.4
20260906173608 27 180 6.4 11.3 0.00 0.00 0.00 39 1020.5
20260906173104 27 63 6.4 14.5 0.00 0.00 0.00 38 1020.2
20260906172603 28 206 6.4 14.5 0.00 0.00 0.00 37 1020.6
20260906172059 27 252 3.2 6.4 0.00 0.00 0.00 38 1020.5
20260906171559 27 212 1.6 8.0 0.00 0.00 0.00 38 1020.6
20260906171054 27 166 6.4 14.5 0.05 0.00 0.00 38 1020.7
20260906170550 27 111 0.0 11.3 0.05 0.00 0.00 38 1020.6
20260906170049 27 24 3.2 6.4 0.00 0.00 0.00 40 1020.9
20260906165546 26 295 0.0 3.2 0.00 0.00 0.00 43 1021.0
20260906165041 -17 0.0 0.0 0.00 0.00 0.00 1020.9
20260906164540 -17 0.0 0.0 0.00 0.00 0.00 1020.7
20260906164036 -17 0.0 0.0 0.00 0.00 0.00 1020.7
20260906163531 -17 0.0 0.0 0.00 0.00 0.00 1020.9
20260906163027 -17 0.0 0.0 0.00 0.00 0.00 1020.6
20260906162524 -17 0.0 0.0 0.00 0.00 0.00 1020.9
20260906162019 -17 0.0 0.0 0.00 0.00 0.00 1020.7
20260906161514 -17 0.0 0.0 0.00 0.00 0.00 1020.6
20260906161013 -17 0.0 0.0 0.00 0.00 0.00 1020.6
20260906160512 -17 0.0 0.0 0.00 0.00 0.00 1020.7
20260906160011 -17 0.0 0.0 0.00 0.00 0.00 1020.7
20260906155509 -17 0.0 0.0 0.00 0.00 0.00 1021.0
20260906155005 -17 0.0 0.0 0.00 0.00 0.00 1020.5
20260906154501 -17 0.0 0.0 0.00 0.00 0.00 1020.5
20260906153959 -17 0.0 0.0 0.00 0.00 0.00 1020.5
20260906153457 23 287 3.2 3.2 0.00 0.00 0.00 44 1020.6
20260906152953 23 287 3.2 3.2 0.00 0.00 0.00 44 1020.7
20260906152453 23 287 3.2 3.2 0.00 0.00 0.00 44 1020.7
20260906151952 23 287 3.2 3.2 0.00 0.00 0.00 44 1020.4
20260906151448 23 287 3.2 3.2 0.00 0.00 0.00 44 1020.5
20260906150944 23 287 3.2 3.2 0.00 0.00 0.00 44 1020.5
20260906150439 23 287 3.2 3.2 0.00 0.00 0.00 44 1020.6
20260906145938 23 287 3.2 3.2 0.00 0.00 0.00 44 1020.4
20260906145437 23 287 3.2 3.2 0.00 0.00 0.00 44 1020.6
20260906144933 23 287 3.2 3.2 0.00 0.00 0.00 44 1020.4
20260906144432 23 287 3.2 3.2 0.00 0.00 0.00 44 1020.6
20260906143928 23 287 3.2 3.2 0.00 0.00 0.00 44 1020.4
20260906143424 -17 0.0 0.0 0.00 0.00 0.00 1020.4
20260906142920 -17 0.0 0.0 0.00 0.00 0.00 1020.1
20260906142419 -17 0.0 0.0 0.00 0.00 0.00 1020.2
20260906141914 -17 0.0 0.0 0.00 0.00 0.00 1020.2
20260906141413 -17 0.0 0.0 0.00 0.00 0.00 1020.0
20260906140908 -17 0.0 0.0 0.00 0.00 0.00 1020.2
20260906140402 -17 0.0 0.0 0.00 0.00 0.00 1020.1
20260906135900 -17 0.0 0.0 0.00 0.00 0.00 1020.1
20260906135354 -17 0.0 0.0 0.00 0.00 0.00 1020.0
20260906134850 -17 0.0 0.0 0.00 0.00 0.00 1020.1
20260906134345 -17 0.0 0.0 0.00 0.00 0.00 1019.9
20260906133841 -17 0.0 0.0 0.00 0.00 0.00 1020.0
20260906133336 -17 0.0 0.0 0.00 0.00 0.00 1020.1
20260906132832 -17 0.0 0.0 0.00 0.00 0.00 1020.0
20260906132326 -17 0.0 0.0 0.00 0.00 0.00 1019.9
20260906131822 -17 0.0 0.0 0.00 0.00 0.00 1019.8
20260906131317 -17 0.0 0.0 0.00 0.00 0.00 1019.5
20260906130814 -17 0.0 0.0 0.00 0.00 0.00 1019.6
20260906130312 -17 0.0 0.0 0.00 0.00 0.00 1019.6
20260906125811 -17 0.0 0.0 0.00 0.00 0.00 1019.6
20260906125306 -17 0.0 0.0 0.00 0.00 0.00 1019.8
20260906124759 -17 0.0 0.0 0.00 0.00 0.00 1019.5
20260906124255 -17 0.0 0.0 0.00 0.00 0.00 1019.8
20260906123753 -17 0.0 0.0 0.00 0.00 0.00 1019.6
20260906123249 -17 0.0 0.0 0.00 0.00 0.00 1019.8
20260906122748 -17 0.0 0.0 0.00 0.00 0.00 1019.8
20260906122243 -17 0.0 0.0 0.00 0.00 0.00 1019.5
20260906121740 -17 0.0 0.0 0.00 0.00 0.00 1019.4
20260906121236 -17 0.0 0.0 0.00 0.00 0.00 1019.6
20260906120731 -17 0.0 0.0 0.00 0.00 0.00 1019.8
20260906120228 -17 0.0 0.0 0.00 0.00 0.00 1019.6
20260906115723 -17 0.0 0.0 0.00 0.00 0.00 1019.6
20260906115223 -17 0.0 0.0 0.00 0.00 0.00 1019.9
20260906114722 -17 0.0 0.0 0.00 0.00 0.00 1019.3
20260906114218 -17 0.0 0.0 0.00 0.00 0.00 1019.6
20260906113713 -17 0.0 0.0 0.00 0.00 0.00 1019.3
20260906113213 -17 0.0 0.0 0.00 0.00 0.00 1019.4
20260906112712 -17 0.0 0.0 0.00 0.00 0.00 1019.5
20260906112209 -17 0.0 0.0 0.00 0.00 0.00 1019.4
20260906111708 -17 0.0 0.0 0.00 0.00 0.00 1019.3
20260906111203 -17 0.0 0.0 0.00 0.00 0.00 1019.3
20260906110658 -17 0.0 0.0 0.00 0.00 0.00 1019.1
20260906110153 -17 0.0 0.0 0.00 0.00 0.00 1019.3
20260906105647 -17 0.0 0.0 0.00 0.00 0.00 1019.3
20260906105144 -17 0.0 0.0 0.00 0.00 0.00 1018.9
20260906104643 -17 0.0 0.0 0.00 0.00 0.00 1019.1
20260906104142 -17 0.0 0.0 0.00 0.00 0.00 1019.0
20260906103640 -17 0.0 0.0 0.00 0.00 0.00 1019.1
20260906103136 -17 0.0 0.0 0.00 0.00 0.00 1019.1
20260906102632 -17 0.0 0.0 0.00 0.00 0.00 1019.5
20260906102131 -17 0.0 0.0 0.00 0.00 0.00 1019.3
20260906101631 -17 0.0 0.0 0.00 0.00 0.00 1019.3
20260906101131 -17 0.0 0.0 0.00 0.00 0.00 1019.3
20260906100627 -17 0.0 0.0 0.00 0.00 0.00 1019.4
20260906100122 -17 0.0 0.0 0.00 0.00 0.00 1019.3
20260906095621 -17 0.0 0.0 0.00 0.00 0.00 1019.5
20260906095117 -17 0.0 0.0 0.00 0.00 0.00 1019.8
20260906094616 -17 0.0 0.0 0.00 0.00 0.00 1019.6
20260906094112 -17 0.0 0.0 0.00 0.00 0.00 1019.8
20260906093609 -17 0.0 0.0 0.00 0.00 0.00 1019.6
20260906093109 -17 0.0 0.0 0.00 0.00 0.00 1019.6
20260906092609 -17 0.0 0.0 0.00 0.00 0.00 1019.8
20260906092104 -17 0.0 0.0 0.00 0.00 0.00 1019.8
20260906091600 -17 0.0 0.0 0.00 0.00 0.00 1019.4
20260906091057 -17 0.0 0.0 0.00 0.00 0.00 1019.6
20260906090556 -17 0.0 0.0 0.00 0.00 0.00 1019.4
20260906090051 -17 0.0 0.0 0.00 0.00 0.00 1019.6
20260906085550 -17 0.0 0.0 0.00 0.00 0.00 1019.5
20260906085050 -17 0.0 0.0 0.00 0.00 0.00 1019.4
20260906084545 -17 0.0 0.0 0.00 0.00 0.00 1019.4
20260906084043 -17 0.0 0.0 0.00 0.00 0.00 1019.3
20260906083539 -17 0.0 0.0 0.00 0.00 0.00 1019.1
20260906083039 -17 0.0 0.0 0.00 0.00 0.00 1019.1
20260906082534 -17 0.0 0.0 0.00 0.00 0.00 1019.1
20260906082030 -17 0.0 0.0 0.00 0.00 0.00 1019.5
20260906081525 -17 0.0 0.0 0.00 0.00 0.00 1019.3
20260906081022 -17 0.0 0.0 0.00 0.00 0.00 1019.4
20260906080518 -17 0.0 0.0 0.00 0.00 0.00 1019.3
20260906080014 -17 0.0 0.0 0.00 0.00 0.00 1019.4
20260906075513 -17 0.0 0.0 0.00 0.00 0.00 1019.4
20260906075008 -17 0.0 0.0 0.00 0.00 0.00 1019.6
20260906074503 -17 0.0 0.0 0.00 0.00 0.00 1019.4
20260906074001 -17 0.0 0.0 0.00 0.00 0.00 1019.6
20260906073456 -17 0.0 0.0 0.00 0.00 0.00 1019.5
20260906072952 -17 0.0 0.0 0.00 0.00 0.00 1019.8
20260906072447 -17 0.0 0.0 0.00 0.00 0.00 1019.8
20260906071943 -17 0.0 0.0 0.00 0.00 0.00 1019.9
20260906071439 -17 0.0 0.0 0.00 0.00 0.00 1020.0
20260906070935 -17 0.0 0.0 0.00 0.00 0.00 1019.6
20260906070430 -17 0.0 0.0 0.00 0.00 0.00 1019.6
20260906065926 -17 0.0 0.0 0.00 0.00 0.00 1019.9
20260906065420 -17 0.0 0.0 0.00 0.00 0.00 1019.8
20260906064916 -17 0.0 0.0 0.00 0.00 0.00 1019.9
20260906064413 -17 0.0 0.0 0.00 0.00 0.00 1020.1
20260906063912 -17 0.0 0.0 0.00 0.00 0.00 1019.9
20260906063407 -17 0.0 0.0 0.00 0.00 0.00 1019.9
20260906062902 -17 0.0 0.0 0.00 0.00 0.00 1019.9
20260906062401 -17 0.0 0.0 0.00 0.00 0.00 1019.6
20260906061857 -17 0.0 0.0 0.00 0.00 0.00 1019.8
20260906061354 -17 0.0 0.0 0.00 0.00 0.00 1019.6
20260906060848 -17 0.0 0.0 0.00 0.00 0.00 1019.9
20260906060345 -17 0.0 0.0 0.00 0.00 0.00 1019.9
20260906055841 -17 0.0 0.0 0.00 0.00 0.00 1019.9
20260906055337 -17 0.0 0.0 0.00 0.00 0.00 1019.5
20260906054832 -17 0.0 0.0 0.00 0.00 0.00 1019.8
20260906054327 -17 0.0 0.0 0.00 0.00 0.00 1019.8
20260906053823 -17 0.0 0.0 0.00 0.00 0.00 1019.9
20260906053319 -17 0.0 0.0 0.00 0.00 0.00 1019.6
20260906052814 -17 0.0 0.0 0.00 0.00 0.00 1019.5
20260906052310 -17 0.0 0.0 0.00 0.00 0.00 1019.6
20260906051807 -17 0.0 0.0 0.00 0.00 0.00 1019.6
20260906051306 -17 0.0 0.0 0.00 0.00 0.00 1019.8
20260906050801 -17 0.0 0.0 0.00 0.00 0.00 1019.8
20260906050257 -17 0.0 0.0 0.00 0.00 0.00 1020.0
20260906045755 -17 0.0 0.0 0.00 0.00 0.00 1020.1
20260906045250 -17 0.0 0.0 0.00 0.00 0.00 1020.0
20260906044746 -17 0.0 0.0 0.00 0.00 0.00 1019.9
20260906044241 -17 0.0 0.0 0.00 0.00 0.00 1019.9
20260906043737 -17 0.0 0.0 0.00 0.00 0.00 1020.0
20260906043233 -17 0.0 0.0 0.00 0.00 0.00 1020.0
20260906042733 -17 0.0 0.0 0.00 0.00 0.00 1020.0
20260906042231 -17 0.0 0.0 0.00 0.00 0.00 1020.0
20260906041727 -17 0.0 0.0 0.00 0.00 0.00 1020.0
20260906041222 -17 0.0 0.0 0.00 0.00 0.00 1020.0
20260906040718 -17 0.0 0.0 0.00 0.00 0.00 1020.0
20260906040213 -17 0.0 0.0 0.00 0.00 0.00 1020.1
20260906035709 -17 0.0 0.0 0.00 0.00 0.00 1020.1
20260906035159 -17 0.0 0.0 0.00 0.00 0.00 1020.2
20260906034659 -17 0.0 0.0 0.00 0.00 0.00 1020.1
20260906034153 -17 0.0 0.0 0.00 0.00 0.00 1020.1
20260906033649 -17 0.0 0.0 0.00 0.00 0.00 1019.8
20260906033149 -17 0.0 0.0 0.00 0.00 0.00 1019.5
20260906032646 -17 0.0 0.0 0.00 0.00 0.00 1019.6
20260906032146 -17 0.0 0.0 0.00 0.00 0.00 1019.8
20260906031641 -17 0.0 0.0 0.00 0.00 0.00 1019.5
20260906031137 -17 0.0 0.0 0.00 0.00 0.00 1019.9
20260906030636 -17 0.0 0.0 0.00 0.00 0.00 1019.6
20260906030131 -17 0.0 0.0 0.00 0.00 0.00 1019.4
20260906025630 -17 0.0 0.0 0.00 0.00 0.00 1019.1
20260906025130 -17 0.0 0.0 0.00 0.00 0.00 1019.0
20260906024625 -17 0.0 0.0 0.00 0.00 0.00 1019.1
20260906024125 -17 0.0 0.0 0.00 0.00 0.00 1019.0
20260906023621 -17 0.0 0.0 0.00 0.00 0.00 1019.0
20260906023120 -17 0.0 0.0 0.00 0.00 0.00 1019.0
20260906022616 -17 0.0 0.0 0.00 0.00 0.00 1019.0
20260906022111 -17 0.0 0.0 0.00 0.00 0.00 1019.1
20260906021607 -17 0.0 0.0 0.00 0.00 0.00 1018.9
20260906021106 -17 0.0 0.0 0.00 0.00 0.00 1018.8
20260906020605 -17 0.0 0.0 0.00 0.00 0.00 1018.7
20260906020100 -17 0.0 0.0 0.00 0.00 0.00 1018.7
20260906015600 -17 0.0 0.0 0.00 0.00 0.00 1018.5
20260906015059 -17 0.0 0.0 0.00 0.00 0.00 1018.0
20260906014554 -17 0.0 0.0 0.00 0.00 0.00 1018.2
20260906014050 -17 0.0 0.0 0.00 0.00 0.00 1018.3
20260906013545 -17 0.0 0.0 0.00 0.00 0.00 1018.0
20260906013041 -17 0.0 0.0 0.00 0.00 0.00 1018.2
20260906012535 -17 0.0 0.0 0.00 0.00 0.00 1018.0
20260906012035 -17 0.0 0.0 0.00 0.00 0.00 1018.0
20260906011531 -17 0.0 0.0 0.00 0.00 0.00 1018.2
20260906011031 -17 0.0 0.0 0.00 0.00 0.00 1018.2
20260906010526 -17 0.0 0.0 0.00 0.00 0.00 1018.0
20260906010023 -17 0.0 0.0 0.00 0.00 0.00 1018.2
20260906005521 -17 0.0 0.0 0.00 0.00 0.00 1018.4
20260906005020 -17 0.0 0.0 0.00 0.00 0.00 1018.3
20260906004515 -17 0.0 0.0 0.00 0.00 0.00 1018.3
20260906004010 -17 0.0 0.0 0.00 0.00 0.00 1018.4
20260906003505 -17 0.0 0.0 0.00 0.00 0.00 1018.3
20260906003001 -17 0.0 0.0 0.00 0.00 0.00 1018.4
20260906002500 -17 0.0 0.0 0.00 0.00 0.00 1018.3
20260906001955 -17 0.0 0.0 0.00 0.00 0.00 1018.2
20260906001451 -17 0.0 0.0 0.00 0.00 0.00 1018.3
20260906000945 -17 0.0 0.0 0.00 0.00 0.00 1018.2
20260906000441 -17 0.0 0.0 0.00 0.00 0.00 1018.3
20260905235936 -17 0.0 0.0 0.00 0.00 0.00 1018.3
20260905235436 -17 0.0 0.0 0.00 0.00 0.00 1018.2
20260905234931 -17 0.0 0.0 0.00 0.00 0.00 1018.0
20260905234426 -17 0.0 0.0 0.00 0.00 0.00 1018.0
20260905233920 -17 0.0 0.0 0.00 0.00 0.00 1018.0
20260905233416 -17 0.0 0.0 0.00 0.00 0.00 1018.2
20260905232915 -17 0.0 0.0 0.00 0.00 0.00 1018.0
20260905232411 -17 0.0 0.0 0.00 0.00 0.00 1018.0
20260905231906 -17 0.0 0.0 0.00 0.00 0.00 1018.0
20260905231402 -17 0.0 0.0 0.00 0.00 0.00 1018.0
20260905230853 -17 0.0 0.0 0.00 0.00 0.00 1017.8
20260905230350 -17 0.0 0.0 0.00 0.00 0.00 1018.2
20260905225849 -17 0.0 0.0 0.00 0.00 0.00 1018.0
20260905225344 -17 0.0 0.0 0.00 0.00 0.00 1018.2
20260905224839 -17 0.0 0.0 0.00 0.00 0.00 1018.3
20260905224335 -17 0.0 0.0 0.00 0.00 0.00 1018.3
20260905223829 -17 0.0 0.0 0.00 0.00 0.00 1018.4
20260905223327 -17 0.0 0.0 0.00 0.00 0.00 1018.4
20260905222822 -17 0.0 0.0 0.00 0.00 0.00 1018.3
20260905222321 26 0 0.0 0.0 0.00 0.00 0.00 37 1018.5
20260905221817 26 0 0.0 0.0 0.00 0.00 0.00 37 1018.5
20260905221314 26 0 0.0 0.0 0.00 0.00 0.00 37 1018.5
20260905220809 26 0 0.0 0.0 0.00 0.00 0.00 37 1018.4
20260905220306 26 0 0.0 0.0 0.00 0.00 0.00 37 1018.5
20260905215804 26 0 0.0 0.0 0.00 0.00 0.00 37 1018.4
20260905215300 26 0 0.0 0.0 0.00 0.00 0.00 37 1018.7
20260905214756 26 0 0.0 0.0 0.00 0.00 0.00 37 1018.3
20260905214252 26 0 0.0 0.0 0.00 0.00 0.00 37 1018.4
20260905213747 26 0 0.0 0.0 0.00 0.00 0.00 37 1018.5
20260905213243 26 0 0.0 0.0 0.00 0.00 0.00 37 1018.4
20260905212738 26 0 0.0 0.0 0.00 0.00 0.00 37 1018.7